OBJECT WP

基本信息
目录编号:
59596
目录名称:
OBJECT WP
国际标识:
1998-067WP
轨道中心:
EARTH
物体状态:
已陨落(2024-08-29)
发射日期:
1998-11-20 UTC
国别:
(TBD)
轨道信息
数据来源: 国际轨道数据
星历时间: 2024-08-29T07:17:55+0800
半长轴: 6565.905km
偏心率: 0.000714
轨道倾角: 51.613°
近地点辐角: 339.533°
升交点赤经: 297.800°
平近点角: 20.541°
近地点: 183.081km
远地点: 192.459km
周期: 88.247分钟
每日圈数: 16.317773
详细信息
发射场:
TTMTR
轨道高度:
LEO
数据来源:
AOE Integration Group
参考系:
TEME
时间系统:
UTC
历元类型:
SGP4
2D轨道图
3D轨道图
轨道高度分析图
轨道倾角分析图
轨道综合分析图
查看轨道综合分析图